Weather History for KHRJ - August, 2013

Change the Weather History Date:

Wednesday, August 7, 2013

  Actual Average Record
Temperature  
Mean Temperature 78 °F -  
Max Temperature 88 °F 88 °F 105 °F (2007)
Min Temperature 69 °F 68 °F 53 °F (2004)
Cooling Degree Days 14    
Growing Degree Days 28 (Base 50)    
Moisture  
Dew Point 66 °F    
Average Humidity 69    
Maximum Humidity 97    
Minimum Humidity 40    
Precipitation  
Precipitation 0.00 in - - ()
Sea Level Pressure  
Sea Level Pressure 30.08 in    
Wind  
Wind Speed 2 mph (SSE)    
Max Wind Speed 10 mph    
Max Gust Speed -    
Visibility 9 miles    
Events Fog    
Averages and records for this station are not official NWS values.
T = Trace of Precipitation, MM = Missing Value Source: NWS Daily Summary

Daily Weather History Graph

Daily Weather History Graph

Search for Another Location

Airport or City:

Trip Planner

Search our weather history database for the weather conditions in past years. The results will help you decide how hot, cold, wet, or windy it might be!

Date:

Astronomy

Aug. 07, 2013 Rise Set
Actual Time 6:28 AM EDT 8:12 PM EDT
Civil Twilight 6:00 AM EDT 8:39 PM EDT
Nautical Twilight 5:27 AM EDT 9:12 PM EDT
Astronomical Twilight 4:52 AM EDT 9:48 PM EDT
Moon 7:11 AM EDT (8/7) 8:23 PM EDT (8/7)
Length of Visible Light 14h 39m
Length of Day
13h 44m
New Moon, 1% of the Moon is Illuminated
Aug 7
New Moon
Aug 14
First Quarter
Aug 20
Full
Aug 28
Last Quarter
Sep 5
New

Hourly Weather History & Observations

Time (EDT) Temp. Heat Index Dew Point Humidity Pressure Visibility Wind Dir Wind Speed Gust Speed Precip Events Conditions
12:15 AM 71.6 °F - 66.9 °F 85% 30.08 in 0.2 mi Calm Calm - N/A   Haze
12:35 AM 71.1 °F - 67.3 °F 88% 30.08 in 10.0 mi Calm Calm - N/A   Clear
12:55 AM 70.3 °F - 68.4 °F 93% 30.07 in 10.0 mi Calm Calm - N/A   Clear
1:15 AM 70.2 °F - 68.2 °F 93% 30.07 in 7.0 mi Calm Calm - N/A   Clear
1:35 AM 69.3 °F - 68.0 °F 96% 30.07 in 4.0 mi Calm Calm - N/A   Clear
1:55 AM 69.4 °F - 68.0 °F 95% 30.07 in 7.0 mi Calm Calm - N/A   Scattered Clouds
2:15 AM 70.2 °F - 68.0 °F 93% 30.07 in 1.8 mi Calm Calm - N/A   Overcast
2:35 AM 70.0 °F - 68.7 °F 96% 30.07 in 10.0 mi Calm Calm - N/A   Overcast
2:55 AM 70.9 °F - 68.9 °F 93% 30.07 in 10.0 mi Calm Calm - N/A   Overcast
3:15 AM 70.2 °F - 68.9 °F 96% 30.08 in 10.0 mi Calm Calm - N/A   Overcast
3:35 AM 70.0 °F - 69.1 °F 97% 30.08 in 10.0 mi Calm Calm - N/A   Overcast
3:55 AM 70.3 °F - 69.4 °F 97% 30.08 in 10.0 mi Calm Calm - N/A   Overcast
4:15 AM 71.1 °F - 69.3 °F 94% 30.08 in 0.2 mi Calm Calm - N/A Fog Fog
4:35 AM 71.1 °F - 68.9 °F 93% 30.08 in 3.0 mi Calm Calm - N/A   Overcast
4:55 AM 71.4 °F - 69.1 °F 92% 30.08 in 0.2 mi Calm Calm - N/A Fog Fog
5:15 AM 71.6 °F - 68.9 °F 91% 30.08 in 0.2 mi Calm Calm - N/A Fog Fog
5:35 AM 71.4 °F - 69.1 °F 92% 30.08 in 0.2 mi East 3.5 mph - N/A Fog Fog
5:55 AM 71.6 °F - 68.9 °F 91% 30.08 in 0.2 mi Calm Calm - N/A Fog Fog
6:15 AM 71.6 °F - 68.4 °F 89% 30.09 in 0.2 mi Calm Calm - N/A Fog Fog
6:35 AM 71.4 °F - 68.0 °F 89% 30.09 in 10.0 mi Calm Calm - N/A   Overcast
6:55 AM 71.6 °F - 67.3 °F 86% 30.10 in 10.0 mi Calm Calm - N/A   Overcast
7:15 AM 71.8 °F - 66.9 °F 85% 30.10 in 10.0 mi Calm Calm - N/A   Overcast
7:35 AM 71.8 °F - 66.6 °F 84% 30.10 in 10.0 mi Calm Calm - N/A   Overcast
7:55 AM 72.5 °F - 66.6 °F 82% 30.10 in 10.0 mi Calm Calm - N/A   Overcast
8:15 AM 72.0 °F - 68.0 °F 87% 30.10 in 10.0 mi Calm Calm - N/A   Overcast
8:35 AM 73.4 °F - 66.7 °F 80% 30.11 in 10.0 mi Calm Calm - N/A   Overcast
8:55 AM 74.3 °F - 66.4 °F 76% 30.12 in 10.0 mi Calm Calm - N/A   Overcast
9:15 AM 74.7 °F - 67.1 °F 77% 30.12 in 10.0 mi SE 3.5 mph - N/A   Overcast
9:35 AM 76.1 °F - 67.1 °F 74% 30.12 in 10.0 mi Calm Calm - N/A   Overcast
9:55 AM 77.2 °F - 67.5 °F 72% 30.11 in 10.0 mi South 3.5 mph - N/A   Overcast
10:15 AM 78.8 °F - 67.3 °F 68% 30.11 in 10.0 mi SSE 8.1 mph - N/A   Overcast
10:35 AM 79.0 °F - 66.7 °F 66% 30.12 in 10.0 mi SSE 5.8 mph - N/A   Overcast
10:55 AM 80.1 °F 82.2 °F 66.6 °F 63% 30.11 in 10.0 mi Calm Calm - N/A   Mostly Cloudy
11:15 AM 81.3 °F 83.5 °F 66.0 °F 60% 30.11 in 10.0 mi South 8.1 mph - N/A   Overcast
11:35 AM 81.9 °F 83.5 °F 64.6 °F 56% 30.12 in 10.0 mi SSE 3.5 mph - N/A   Overcast
11:55 AM 82.0 °F 83.4 °F 63.7 °F 54% 30.11 in 10.0 mi SSW 4.6 mph - N/A   Overcast
12:15 PM 83.1 °F 84.0 °F 62.6 °F 50% 30.10 in 10.0 mi SSE 4.6 mph - N/A   Overcast
12:35 PM 82.8 °F 83.8 °F 63.0 °F 51% 30.10 in 10.0 mi Calm Calm - N/A   Overcast
12:55 PM 84.0 °F 85.4 °F 63.9 °F 51% 30.10 in 10.0 mi SSE 3.5 mph - N/A   Overcast
1:15 PM 85.3 °F 85.4 °F 61.2 °F 44% 30.11 in 10.0 mi SE 4.6 mph - N/A   Overcast
1:35 PM 84.7 °F 85.4 °F 62.2 °F 47% 30.10 in 10.0 mi South 5.8 mph - N/A   Overcast
1:55 PM 86.2 °F 86.8 °F 62.2 °F 45% 30.09 in 10.0 mi South 5.8 mph - N/A   Mostly Cloudy
2:15 PM 86.9 °F 87.8 °F 63.1 °F 45% 30.08 in 10.0 mi South 10.4 mph - N/A   Scattered Clouds
2:35 PM 86.9 °F 88.1 °F 63.7 °F 46% 30.08 in 10.0 mi SSW 9.2 mph - N/A   Scattered Clouds
2:55 PM 88.2 °F 89.0 °F 63.3 °F 43% 30.07 in 10.0 mi South 10.4 mph - N/A   Clear
3:15 PM 88.3 °F 88.4 °F 61.3 °F 40% 30.06 in 10.0 mi SSE 10.4 mph - N/A   Clear
3:35 PM 88.5 °F 88.9 °F 61.9 °F 41% 30.06 in 10.0 mi SSE 8.1 mph - N/A   Clear
3:55 PM 88.5 °F 89.2 °F 62.8 °F 42% 30.06 in 10.0 mi South 9.2 mph - N/A   Clear
4:15 PM 87.8 °F 88.8 °F 63.1 °F 44% 30.05 in 10.0 mi South 9.2 mph - N/A   Clear
4:35 PM 87.8 °F 88.8 °F 63.7 °F 44% 30.05 in 10.0 mi South 9.2 mph - N/A   Clear
4:55 PM 87.3 °F 88.3 °F 63.5 °F 45% 30.05 in 10.0 mi SSE 6.9 mph - N/A   Clear
5:15 PM 87.3 °F 88.6 °F 64.0 °F 46% 30.04 in 10.0 mi South 5.8 mph - N/A   Clear
5:35 PM 87.6 °F 89.1 °F 64.4 °F 46% 30.04 in 10.0 mi SSW 6.9 mph - N/A   Clear
5:55 PM 87.1 °F 88.6 °F 64.8 °F 47% 30.05 in 10.0 mi South 5.8 mph - N/A   Clear
6:15 PM 86.2 °F 88.2 °F 65.3 °F 50% 30.04 in 10.0 mi SSE 4.6 mph - N/A   Clear
6:35 PM 86.0 °F 87.9 °F 65.7 °F 50% 30.04 in 10.0 mi South 4.6 mph - N/A   Clear
6:55 PM 85.8 °F 88.2 °F 66.6 °F 52% 30.04 in 10.0 mi Calm Calm - N/A   Scattered Clouds
7:15 PM 84.9 °F 87.6 °F 66.9 °F 55% 30.04 in 10.0 mi SSE 4.6 mph - N/A   Scattered Clouds
7:35 PM 83.3 °F 86.2 °F 67.5 °F 59% 30.04 in 10.0 mi SE 3.5 mph - N/A   Scattered Clouds
7:55 PM 82.4 °F 85.2 °F 67.8 °F 61% 30.05 in 10.0 mi SSE 3.5 mph - N/A   Clear
8:15 PM 81.5 °F 84.2 °F 68.0 °F 63% 30.05 in 10.0 mi Calm Calm - N/A   Scattered Clouds
8:35 PM 81.7 °F 84.3 °F 67.6 °F 62% 30.05 in 10.0 mi SE 3.5 mph - N/A   Scattered Clouds
8:55 PM 81.0 °F 83.4 °F 67.5 °F 63% 30.05 in 10.0 mi SE 6.9 mph - N/A   Mostly Cloudy
9:15 PM 80.8 °F 83.2 °F 67.1 °F 63% 30.06 in 7.0 mi SE 3.5 mph - N/A   Mostly Cloudy
9:35 PM 80.2 °F 82.6 °F 67.1 °F 64% 30.06 in 10.0 mi SE 4.6 mph - N/A   Scattered Clouds
9:55 PM 79.7 °F - 66.7 °F 64% 30.07 in 10.0 mi SE 5.8 mph - N/A   Scattered Clouds
10:15 PM 79.3 °F - 66.7 °F 65% 30.07 in 10.0 mi SSE 4.6 mph - N/A   Mostly Cloudy
10:35 PM 78.8 °F - 66.7 °F 66% 30.07 in 10.0 mi SSE 4.6 mph - N/A   Scattered Clouds
10:55 PM 78.3 °F - 67.1 °F 68% 30.08 in 10.0 mi SSE 4.6 mph - N/A   Clear
11:15 PM 77.5 °F - 67.1 °F 70% 30.08 in 10.0 mi SE 3.5 mph - N/A   Clear
11:35 PM 77.0 °F - 67.3 °F 72% 30.07 in 10.0 mi South 4.6 mph - N/A   Clear
11:55 PM 76.5 °F - 67.6 °F 74% 30.07 in 10.0 mi Calm Calm - N/A   Clear